Location: Sternwarte Stuttgart
(48.7670°N, 9.1830°E)
Time: 22:00:02
(UTC+01:00)

Tiangong 2 - Pass Details

Date: 24 January 2019
Orbit: 380 x 390 km, 42.8° (Epoch: 21 February)

Event Time Altitude Azimuth Distance (km) Brightness Sun altitude
Exits shadow 05:12:43 13° 124° (SE) 1,250 4.2 -27.9°
Drops below altitude 10° 05:13:11 10° 119° (ESE) 1,410 4.6 -27.8°
Sets 05:15:25 0° 107° (ESE) 2,267 6.1 -27.4°
